Location: Bothwell
(42.3833°S, 147.0000°E)
Time: 22:38:21
(UTC+11:00)

CUTE-I - Pass Details

Date: 25 September 2022
Orbit: 810 x 823 km, 98.7° (Epoch: 30 November)

Event Time Altitude Azimuth Distance (km) Brightness Sun altitude
Rises 20:27:31 0° 186° (S) 3,390 ? -25.0°
Reaches altitude 10° 20:31:39 10° 217° (SW) 2,450 ? -25.7°
Maximum altitude 20:33:21 12° 236° (SW) 2,340 ? -26.0°
Drops below altitude 10° 20:35:04 10° 254° (WSW) 2,444 ? -26.2°
Sets 20:39:11 0° 286° (WNW) 3,368 ? -26.9°
